Temp
43 41 41 41 41 40 41 41 43 43 43 43 43 43 42 41 41 45 41 38 38 39
43 42 41 42 41 41 42 45 44 44 43 43 43 43 42 41 42 42 41 39 38 38
43 43 42 42 42 42 42 43 43 43 43 43 43 43 41 40 47 41 40 42 39 39
43 43 43 42 42 43 43 43 44 44 43 43 43 42 41 40 44 42 41 40 40 40
43 43 42 42 43 43 42 43 44 44 43 43 43 42 41 41 42 41 41 40 40 40
42 41 41 42 43 43 43 43 43 44 42 43 43 42 41 41 42 41 40 40 40 40
41 41 41 42 43 43 43 42 42 42 42 43 43 43 42 42 40 40 41 41 41 41
42 42 43 42 42 43 42 43 42 42 42 42 43 46 40 41 40 39 39 40 42 42
43 43 42 42 42 42 41 41 41 41 41 40 45 50 51 48 39 40 39 38 39 40
45 43 42 42 42 41 40 39 39 39 39 39 39 50 52 52 41 40 38 38 38 40
45 44 43 42 41 40 39 39 38 38 39 38 41 50 51 52 40 39 38 38 38 37
46 44 43 42 40 39 38 39 38 40 39 37 38 48 51 48 39 39 38 40 40 38
45 45 43 42 40 40 39 40 41 41 39 42 39 47 50 48 40 37 38 38 40 47
45 44 43 41 40 40 40 40 39 39 38 38 40 40 49 51 41 39 38 37 37 38
MSLP
1026.70 1026.87 1026.92 1026.87 1026.91 1026.92 1026.81 1026.72 1026.37 1026.20 1026.02 1026.01 1025.90 1025.69 1025.65 1025.61 1025.20 1024.67 1024.47 1024.36 1024.09 1023.97
1026.11 1026.26 1026.41 1026.39 1026.35 1026.40 1026.13 1026.08 1025.83 1025.80 1025.73 1025.62 1025.47 1025.31 1025.36 1025.31 1024.74 1024.43 1024.15 1023.96 1023.82 1023.61
1025.54 1025.68 1025.80 1025.91 1025.98 1025.88 1025.69 1025.68 1025.53 1025.49 1025.38 1025.25 1025.03 1025.00 1025.04 1024.89 1024.09 1024.05 1023.92 1023.72 1023.54 1023.26
1024.97 1025.18 1025.30 1025.42 1025.45 1025.38 1025.19 1025.21 1025.14 1024.99 1024.89 1024.86 1024.79 1024.70 1024.77 1024.49 1024.08 1023.77 1023.61 1023.46 1023.29 1022.99
1024.38 1024.66 1024.79 1024.87 1024.89 1024.78 1024.89 1024.77 1024.69 1024.61 1024.69 1024.64 1024.57 1024.39 1024.38 1024.20 1023.85 1023.63 1023.54 1023.32 1023.10 1022.74
1023.78 1024.12 1024.24 1024.33 1024.30 1024.27 1024.35 1024.38 1024.35 1024.25 1024.39 1024.32 1024.20 1024.00 1023.96 1023.81 1023.68 1023.47 1023.33 1023.06 1022.76 1022.41
1023.03 1023.34 1023.56 1023.72 1023.80 1023.82 1023.81 1023.99 1023.99 1023.97 1024.02 1023.91 1023.74 1023.53 1023.54 1023.50 1023.35 1023.14 1023.00 1022.72 1022.38 1022.09
1022.27 1022.61 1022.90 1023.15 1023.31 1023.36 1023.39 1023.47 1023.41 1023.54 1023.57 1023.49 1023.30 1022.99 1022.92 1022.88 1022.92 1022.82 1022.62 1022.36 1022.11 1021.66
1021.70 1022.12 1022.36 1022.55 1022.73 1022.92 1023.00 1023.03 1023.10 1023.10 1023.15 1023.07 1022.77 1022.40 1022.22 1022.09 1022.33 1022.39 1022.34 1022.18 1021.83 1021.41
1020.80 1021.26 1021.61 1021.93 1022.20 1022.39 1022.57 1022.58 1022.64 1022.68 1022.70 1022.60 1022.35 1022.00 1021.71 1021.48 1021.81 1022.03 1022.00 1021.71 1021.55 1021.27
1020.02 1020.48 1020.78 1021.21 1021.53 1021.78 1022.01 1022.14 1022.23 1022.17 1022.15 1022.14 1021.88 1021.49 1021.24 1021.19 1021.45 1021.62 1021.50 1021.24 1021.11 1021.08
1019.07 1019.72 1020.19 1020.57 1020.84 1021.13 1021.45 1021.58 1021.67 1021.63 1021.62 1021.70 1021.47 1021.22 1021.04 1020.98 1021.24 1021.37 1021.22 1020.91 1020.83 1020.71
1018.27 1018.86 1019.32 1019.69 1020.14 1020.36 1020.64 1020.82 1021.01 1021.11 1021.09 1021.07 1020.95 1020.82 1020.67 1020.62 1020.83 1021.11 1021.02 1020.69 1020.50 1020.39
1017.49 1018.00 1018.43 1018.93 1019.38 1019.70 1020.02 1020.21 1020.46 1020.59 1020.52 1020.53 1020.39 1020.26 1020.23 1020.15 1020.28 1020.48 1020.63 1020.56 1020.43 1020.30
Wind_Speed
8 5 5 5 4 4 3 4 4 4 5 5 5 5 4 3 4 5 4 6 4 4
7 7 6 7 5 4 4 3 5 5 5 5 5 6 4 3 5 5 4 5 3 3
7 7 7 6 6 6 6 4 5 5 5 5 5 5 2 4 6 5 4 4 4 4
7 7 7 6 6 6 5 5 6 6 5 5 5 5 3 5 7 6 6 5 3 6
7 7 7 6 7 6 6 5 6 5 4 5 4 4 4 6 6 6 6 6 4 6
8 7 8 7 7 6 6 5 5 4 4 5 5 5 5 4 5 5 6 6 5 6
9 8 7 7 7 6 6 5 5 5 5 5 5 5 3 2 5 6 5 6 5 4
8 7 7 7 7 6 6 6 6 5 5 5 4 4 5 4 5 6 6 6 5 4
8 7 8 7 7 6 7 6 6 6 6 5 4 9 10 6 4 5 6 6 5 4
9 9 8 7 7 7 7 6 7 6 5 6 6 10 11 10 2 4 6 6 5 3
10 10 8 8 8 7 5 7 6 6 7 6 5 11 11 9 1 4 6 6 5 4
11 10 9 9 8 6 5 5 6 5 6 6 6 11 11 7 2 4 6 5 4 5
10 11 11 10 8 6 5 6 5 6 6 9 7 10 11 7 3 3 4 5 5 5
10 10 9 8 6 6 6 6 6 6 6 6 7 8 12 10 4 4 3 3 3 2
Wind_Direction
207 203 217 232 231 229 232 248 257 267 268 283 282 283 288 295 292 292 292 295 278 274
202 209 220 234 226 230 246 238 252 258 279 281 280 288 290 262 295 295 292 277 278 281
206 215 222 223 230 239 252 245 255 271 269 278 280 295 305 265 282 304 297 281 296 295
211 217 214 216 231 236 243 242 251 258 268 269 287 290 308 284 276 301 305 297 295 298
207 214 217 219 230 241 237 239 247 262 270 275 281 286 291 290 290 310 319 304 300 295
205 207 215 220 229 230 230 242 259 265 267 260 272 280 297 262 295 312 312 303 296 296
201 204 212 217 221 216 220 234 247 258 251 254 263 278 262 278 300 306 303 301 293 293
202 205 212 213 214 217 225 231 236 246 254 252 252 267 220 227 274 293 299 305 291 287
195 200 211 208 209 213 229 235 240 248 242 244 250 271 289 284 236 289 295 292 282 291
197 200 208 206 208 213 222 229 237 246 237 243 245 267 285 289 204 294 289 286 249 279
198 205 198 198 208 215 212 226 230 237 238 239 248 266 282 289 200 298 292 284 233 215
195 200 200 207 206 207 207 225 227 224 237 234 250 265 275 283 218 296 307 304 267 210
190 200 203 204 203 199 200 215 218 238 231 240 247 258 263 266 186 257 288 304 317 291
192 198 200 194 187 196 209 218 224 236 248 245 245 255 255 252 190 208 243 272 301 291